TUI015 LATI-EDDL

Flight info

Callsign TUI015
Flight time 2h 9m
Altitude 36000
Route INLOT DCT RETRA DCT PODET DCT SIMBA DCT KEMES DCT TESDU DCT AMETU T852 TINSA T854 DOMUX DOMUX1A
Aircraft B738/M-SDE2E3FGHIRWXY/LB1

Departure

Time 2026-05-06 16:18
Airport Tirana International Airport Mother Teresa (LATI)

Arrival

Time 2026-05-06 18:27
Airport Düsseldorf Airport (EDDL)
Time Latitude Longitude Altitude Speed Heading
2026-05-06 15:40 41.41949 19.71519 120 ft 0 kts 264°
2026-05-06 16:08 41.41950 19.71533 117 ft 3 kts 263°
2026-05-06 16:08 41.41955 19.71563 119 ft 4 kts 231°
2026-05-06 16:08 41.41975 19.71576 119 ft 4 kts 177°
2026-05-06 16:08 41.41989 19.71575 121 ft 1 kts 174°
2026-05-06 16:09 41.41990 19.71575 117 ft 0 kts 174°
2026-05-06 16:09 41.41991 19.71575 122 ft 0 kts 174°
2026-05-06 16:12 41.41988 19.71575 118 ft 1 kts 174°
2026-05-06 16:12 41.41971 19.71577 119 ft 4 kts 174°
2026-05-06 16:12 41.41935 19.71583 119 ft 7 kts 174°
2026-05-06 16:13 41.41879 19.71590 122 ft 9 kts 174°
2026-05-06 16:13 41.41807 19.71600 121 ft 12 kts 174°
2026-05-06 16:13 41.41720 19.71613 122 ft 14 kts 174°
2026-05-06 16:13 41.41619 19.71627 123 ft 15 kts 174°
2026-05-06 16:14 41.41507 19.71640 122 ft 17 kts 175°
2026-05-06 16:14 41.41383 19.71657 126 ft 19 kts 174°
2026-05-06 16:14 41.41249 19.71675 127 ft 20 kts 174°
2026-05-06 16:14 41.41103 19.71695 125 ft 22 kts 174°
2026-05-06 16:15 41.40948 19.71717 129 ft 23 kts 172°
2026-05-06 16:15 41.40794 19.71754 127 ft 22 kts 171°
2026-05-06 16:15 41.40638 19.71775 130 ft 23 kts 174°
2026-05-06 16:15 41.40481 19.71796 129 ft 22 kts 174°
2026-05-06 16:16 41.40343 19.71870 132 ft 22 kts 144°
2026-05-06 16:16 41.40243 19.72008 132 ft 21 kts 98°
2026-05-06 16:16 41.40249 19.72157 132 ft 12 kts 84°
2026-05-06 16:16 41.40305 19.72213 131 ft 11 kts 358°
2026-05-06 16:17 41.40382 19.72203 130 ft 11 kts 353°
2026-05-06 16:17 41.40562 19.72179 132 ft 62 kts 354°
2026-05-06 16:17 41.41289 19.72081 126 ft 145 kts 354°
2026-05-06 16:17 41.42505 19.71891 379 ft 196 kts 353°
2026-05-06 16:18 41.43892 19.71676 1351 ft 205 kts 353°
2026-05-06 16:18 41.45305 19.71501 2484 ft 201 kts 356°
2026-05-06 16:18 41.46743 19.71340 3336 ft 220 kts 355°
2026-05-06 16:18 41.48385 19.71174 3707 ft 249 kts 355°
2026-05-06 16:19 41.50160 19.70987 4330 ft 268 kts 355°
2026-05-06 16:19 41.52082 19.70776 5090 ft 283 kts 355°
2026-05-06 16:19 41.53999 19.70294 6291 ft 278 kts 337°
2026-05-06 16:19 41.55758 19.69293 7508 ft 275 kts 333°
2026-05-06 16:20 41.57520 19.68234 8489 ft 281 kts 333°
2026-05-06 16:20 41.59291 19.67178 9471 ft 284 kts 333°
2026-05-06 16:20 41.61139 19.66096 10402 ft 290 kts 333°
2026-05-06 16:20 41.63040 19.64995 10740 ft 316 kts 334°
2026-05-06 16:21 41.65146 19.63786 11002 ft 341 kts 334°
2026-05-06 16:21 41.67368 19.62528 11646 ft 352 kts 335°
2026-05-06 16:21 41.69638 19.61251 12505 ft 355 kts 335°
2026-05-06 16:21 41.71927 19.59968 13375 ft 359 kts 335°
2026-05-06 16:22 41.74245 19.58669 14125 ft 364 kts 335°
2026-05-06 16:22 41.76601 19.57349 14775 ft 369 kts 335°
2026-05-06 16:22 41.78985 19.56011 15461 ft 373 kts 335°
2026-05-06 16:22 41.81387 19.54663 16166 ft 376 kts 335°
2026-05-06 16:23 41.83806 19.53303 16825 ft 380 kts 334°
2026-05-06 16:23 41.86253 19.51926 17494 ft 383 kts 334°
2026-05-06 16:23 41.88712 19.50541 18141 ft 386 kts 334°
2026-05-06 16:23 41.91203 19.49137 18695 ft 389 kts 334°
2026-05-06 16:24 41.93709 19.47724 19233 ft 392 kts 334°
2026-05-06 16:24 41.96227 19.46303 19800 ft 394 kts 334°
2026-05-06 16:24 41.98766 19.44885 20316 ft 396 kts 335°
2026-05-06 16:24 42.01365 19.43592 20806 ft 400 kts 336°
2026-05-06 16:25 42.04005 19.42364 21305 ft 403 kts 337°
2026-05-06 16:25 42.06665 19.41141 21805 ft 405 kts 337°
2026-05-06 16:25 42.09335 19.39902 22283 ft 407 kts 336°
2026-05-06 16:25 42.12016 19.38641 22729 ft 409 kts 336°
2026-05-06 16:26 42.14713 19.37361 23167 ft 412 kts 336°
2026-05-06 16:26 42.17420 19.36070 23607 ft 414 kts 336°
2026-05-06 16:26 42.20138 19.34772 23951 ft 416 kts 336°
2026-05-06 16:26 42.22844 19.33373 24290 ft 415 kts 330°
2026-05-06 16:27 42.25345 19.31468 24632 ft 412 kts 323°
2026-05-06 16:27 42.27757 19.29362 24978 ft 413 kts 322°
2026-05-06 16:27 42.30162 19.27230 25298 ft 415 kts 322°
2026-05-06 16:27 42.32581 19.25081 25611 ft 417 kts 322°
2026-05-06 16:28 42.34186 19.23661 25816 ft 418 kts 322°
2026-05-06 16:28 42.36631 19.21502 26187 ft 421 kts 323°
2026-05-06 16:28 42.39091 19.19340 26628 ft 422 kts 323°
2026-05-06 16:28 42.42370 19.16467 27158 ft 426 kts 323°
2026-05-06 16:29 42.44865 19.14283 27528 ft 429 kts 323°
2026-05-06 16:29 42.47373 19.12087 27920 ft 430 kts 323°
2026-05-06 16:29 42.49892 19.09881 28317 ft 432 kts 323°
2026-05-06 16:29 42.51600 19.08385 28614 ft 432 kts 323°
2026-05-06 16:30 42.54130 19.06167 28992 ft 434 kts 323°
2026-05-06 16:30 42.55815 19.04687 29184 ft 437 kts 323°
2026-05-06 16:30 42.59248 19.01669 29621 ft 440 kts 323°
2026-05-06 16:30 42.61822 18.99404 30011 ft 441 kts 323°
2026-05-06 16:31 42.64398 18.97136 30345 ft 443 kts 323°
2026-05-06 16:31 42.66984 18.94857 30667 ft 443 kts 323°
2026-05-06 16:31 42.69573 18.92572 31053 ft 443 kts 323°
2026-05-06 16:31 42.72136 18.90310 31611 ft 437 kts 323°
2026-05-06 16:32 42.74676 18.88068 32161 ft 432 kts 323°
2026-05-06 16:32 42.77192 18.85842 32542 ft 432 kts 323°
2026-05-06 16:32 42.79711 18.83608 32835 ft 432 kts 323°
2026-05-06 16:32 42.82230 18.81372 33177 ft 432 kts 323°
2026-05-06 16:33 42.84740 18.79143 33621 ft 429 kts 323°
2026-05-06 16:33 42.87235 18.76926 34041 ft 428 kts 323°
2026-05-06 16:33 42.89704 18.74729 34204 ft 431 kts 323°
2026-05-06 16:34 42.94750 18.70229 34624 ft 434 kts 323°
2026-05-06 16:34 42.97268 18.67984 34998 ft 431 kts 323°
2026-05-06 16:34 42.99773 18.65748 35264 ft 430 kts 323°
2026-05-06 16:34 43.02280 18.63506 35501 ft 431 kts 323°
2026-05-06 16:35 43.04794 18.61256 35716 ft 432 kts 322°
2026-05-06 16:35 43.07306 18.59006 35983 ft 431 kts 322°
2026-05-06 16:35 43.09814 18.56757 36143 ft 434 kts 322°
2026-05-06 16:36 43.14887 18.52198 36128 ft 436 kts 322°
2026-05-06 16:36 43.19922 18.47672 36117 ft 429 kts 322°
2026-05-06 16:37 43.24897 18.43187 36145 ft 428 kts 322°
2026-05-06 16:37 43.29879 18.38684 36127 ft 429 kts 322°
2026-05-06 16:38 43.34869 18.34165 36129 ft 431 kts 322°
2026-05-06 16:38 43.39883 18.29616 36135 ft 433 kts 322°
2026-05-06 16:39 43.44922 18.25033 36128 ft 436 kts 322°
2026-05-06 16:39 43.49994 18.20415 36126 ft 439 kts 322°
2026-05-06 16:40 43.55092 18.15763 36125 ft 438 kts 321°
2026-05-06 16:40 43.60079 18.11214 36089 ft 424 kts 321°
2026-05-06 16:41 43.64980 18.06723 36106 ft 422 kts 321°
2026-05-06 16:41 43.69875 18.02222 36095 ft 423 kts 321°
2026-05-06 16:42 43.74784 17.97703 36089 ft 424 kts 321°
2026-05-06 16:42 43.79701 17.93169 36095 ft 425 kts 321°
2026-05-06 16:43 43.84627 17.88618 36108 ft 427 kts 320°
2026-05-06 16:43 43.89574 17.84039 36079 ft 428 kts 320°
2026-05-06 16:44 43.94501 17.79470 36075 ft 429 kts 320°
2026-05-06 16:44 43.99465 17.74858 36079 ft 430 kts 320°
2026-05-06 16:45 44.04440 17.70224 36063 ft 431 kts 320°
2026-05-06 16:45 44.09425 17.65573 36080 ft 432 kts 320°
2026-05-06 16:46 44.14410 17.60911 36073 ft 432 kts 320°
2026-05-06 16:46 44.19399 17.56238 36057 ft 432 kts 320°
2026-05-06 16:47 44.24377 17.51564 36066 ft 431 kts 320°
2026-05-06 16:47 44.29353 17.46882 36057 ft 431 kts 320°
2026-05-06 16:48 44.34323 17.42196 36070 ft 431 kts 320°
2026-05-06 16:48 44.39300 17.37492 36060 ft 432 kts 320°
2026-05-06 16:49 44.44283 17.32773 36048 ft 433 kts 320°
2026-05-06 16:49 44.49275 17.28037 36051 ft 433 kts 320°
2026-05-06 16:50 44.54262 17.23296 36038 ft 433 kts 320°
2026-05-06 16:50 44.59255 17.18539 36034 ft 434 kts 320°
2026-05-06 16:51 44.64219 17.13798 36033 ft 435 kts 320°
2026-05-06 16:51 44.69217 17.09016 36043 ft 435 kts 320°
2026-05-06 16:52 44.74214 17.04225 36018 ft 435 kts 320°
2026-05-06 16:52 44.79211 16.99423 36014 ft 435 kts 320°
2026-05-06 16:53 44.84210 16.94609 36028 ft 435 kts 320°
2026-05-06 16:53 44.89213 16.89780 36021 ft 436 kts 320°
2026-05-06 16:54 44.94225 16.84932 36023 ft 437 kts 320°
2026-05-06 16:54 44.99247 16.80065 36022 ft 438 kts 320°
2026-05-06 16:55 45.04276 16.75180 36023 ft 439 kts 320°
2026-05-06 16:55 45.09313 16.70277 36028 ft 440 kts 320°
2026-05-06 16:56 45.14353 16.65360 36017 ft 440 kts 320°
2026-05-06 16:56 45.19404 16.60422 36009 ft 441 kts 320°
2026-05-06 16:57 45.24450 16.55477 36024 ft 441 kts 320°
2026-05-06 16:57 45.29504 16.50514 36005 ft 442 kts 320°
2026-05-06 16:58 45.34556 16.45543 36021 ft 442 kts 320°
2026-05-06 16:58 45.39610 16.40557 36011 ft 442 kts 320°
2026-05-06 16:59 45.44667 16.35558 36002 ft 443 kts 320°
2026-05-06 16:59 45.49720 16.30551 35998 ft 443 kts 320°
2026-05-06 17:00 45.54778 16.25529 36011 ft 443 kts 320°
2026-05-06 17:00 45.59832 16.20499 36028 ft 443 kts 320°
2026-05-06 17:01 45.64853 16.15492 36007 ft 443 kts 320°
2026-05-06 17:01 45.69900 16.10446 36000 ft 443 kts 320°
2026-05-06 17:02 45.74939 16.05399 36009 ft 442 kts 320°
2026-05-06 17:02 45.79969 16.00347 36014 ft 441 kts 320°
2026-05-06 17:03 45.84990 15.95294 36016 ft 440 kts 320°
2026-05-06 17:03 45.89998 15.90242 36013 ft 440 kts 320°
2026-05-06 17:04 45.95002 15.85182 36003 ft 440 kts 320°
2026-05-06 17:04 46.00004 15.80114 36003 ft 439 kts 320°
2026-05-06 17:05 46.04993 15.75047 36004 ft 438 kts 320°
2026-05-06 17:05 46.09962 15.69988 36022 ft 437 kts 320°
2026-05-06 17:06 46.14930 15.64921 36004 ft 438 kts 320°
2026-05-06 17:06 46.19791 15.59672 36004 ft 436 kts 316°
2026-05-06 17:07 46.24436 15.54037 36001 ft 436 kts 315°
2026-05-06 17:07 46.29057 15.48341 35996 ft 437 kts 315°
2026-05-06 17:08 46.33706 15.42657 35998 ft 438 kts 315°
2026-05-06 17:08 46.38379 15.36970 35999 ft 440 kts 315°
2026-05-06 17:09 46.43070 15.31261 36001 ft 441 kts 315°
2026-05-06 17:09 46.47778 15.25521 35979 ft 443 kts 315°
2026-05-06 17:10 46.52489 15.19762 35979 ft 442 kts 315°
2026-05-06 17:10 46.57187 15.14006 35997 ft 441 kts 315°
2026-05-06 17:11 46.61881 15.08240 35999 ft 442 kts 314°
2026-05-06 17:11 46.66541 15.02500 35979 ft 442 kts 314°
2026-05-06 17:12 46.71229 14.96715 35984 ft 441 kts 314°
2026-05-06 17:12 46.75915 14.90917 35959 ft 442 kts 314°
2026-05-06 17:13 46.80600 14.85107 35964 ft 442 kts 314°
2026-05-06 17:13 46.85283 14.79286 35963 ft 442 kts 314°
2026-05-06 17:14 46.89956 14.73464 35950 ft 441 kts 314°
2026-05-06 17:14 46.94613 14.67649 35946 ft 440 kts 314°
2026-05-06 17:15 46.99267 14.61821 35950 ft 440 kts 314°
2026-05-06 17:15 47.03923 14.55977 35952 ft 441 kts 314°
2026-05-06 17:16 47.07798 14.51103 35963 ft 442 kts 313°
2026-05-06 17:16 47.12475 14.45206 35933 ft 445 kts 313°
2026-05-06 17:17 47.17943 14.38296 35931 ft 447 kts 313°
2026-05-06 17:17 47.21894 14.33291 35919 ft 447 kts 313°
2026-05-06 17:18 47.26609 14.27307 35922 ft 448 kts 313°
2026-05-06 17:18 47.31326 14.21304 35940 ft 447 kts 312°
2026-05-06 17:19 47.36032 14.15301 35908 ft 448 kts 312°
2026-05-06 17:19 47.40746 14.09272 35891 ft 449 kts 312°
2026-05-06 17:20 47.45426 14.03273 35877 ft 448 kts 312°
2026-05-06 17:20 47.50119 13.97243 35870 ft 446 kts 312°
2026-05-06 17:21 47.54796 13.91215 35879 ft 445 kts 312°
2026-05-06 17:21 47.59466 13.85182 35860 ft 445 kts 311°
2026-05-06 17:22 47.64137 13.79131 35853 ft 446 kts 311°
2026-05-06 17:22 47.68805 13.73072 35821 ft 447 kts 311°
2026-05-06 17:23 47.73478 13.66991 35828 ft 447 kts 311°
2026-05-06 17:23 47.78148 13.60899 35813 ft 447 kts 311°
2026-05-06 17:24 47.82824 13.54783 35809 ft 448 kts 311°
2026-05-06 17:24 47.87514 13.48635 35809 ft 449 kts 311°
2026-05-06 17:25 47.92206 13.42468 35785 ft 450 kts 311°
2026-05-06 17:25 47.96899 13.36285 35781 ft 451 kts 311°
2026-05-06 17:26 48.01599 13.30077 35791 ft 451 kts 311°
2026-05-06 17:26 48.06298 13.23853 35793 ft 453 kts 311°
2026-05-06 17:27 48.11011 13.17595 35797 ft 453 kts 311°
2026-05-06 17:27 48.15723 13.11322 35784 ft 454 kts 311°
2026-05-06 17:28 48.20440 13.05027 35798 ft 454 kts 311°
2026-05-06 17:28 48.25158 12.98741 35797 ft 454 kts 311°
2026-05-06 17:29 48.29914 12.92505 35818 ft 455 kts 312°
2026-05-06 17:29 48.34678 12.86265 35814 ft 454 kts 312°
2026-05-06 17:30 48.39428 12.80014 35804 ft 453 kts 312°
2026-05-06 17:30 48.44164 12.73756 35811 ft 453 kts 312°
2026-05-06 17:31 48.48893 12.67487 35816 ft 452 kts 312°
2026-05-06 17:31 48.53607 12.61223 35814 ft 452 kts 312°
2026-05-06 17:32 48.58316 12.54947 35831 ft 451 kts 312°
2026-05-06 17:32 48.62985 12.48711 35843 ft 451 kts 312°
2026-05-06 17:33 48.67685 12.42416 35830 ft 451 kts 311°
2026-05-06 17:33 48.72380 12.36111 35828 ft 451 kts 311°
2026-05-06 17:34 48.77076 12.29789 35877 ft 452 kts 311°
2026-05-06 17:34 48.81778 12.23442 35846 ft 453 kts 312°
2026-05-06 17:35 48.86484 12.17073 35841 ft 454 kts 312°
2026-05-06 17:35 48.91193 12.10684 35845 ft 454 kts 312°
2026-05-06 17:36 48.98266 12.01056 35855 ft 455 kts 312°
2026-05-06 17:36 49.02980 11.94619 35886 ft 455 kts 312°
2026-05-06 17:37 49.07688 11.88170 35875 ft 456 kts 312°
2026-05-06 17:37 49.12407 11.81689 35868 ft 456 kts 312°
2026-05-06 17:38 49.17125 11.75194 35871 ft 457 kts 312°
2026-05-06 17:38 49.21835 11.68693 35867 ft 457 kts 311°
2026-05-06 17:39 49.26552 11.62163 35861 ft 457 kts 311°
2026-05-06 17:39 49.31264 11.55623 35865 ft 457 kts 311°
2026-05-06 17:40 49.35970 11.49072 35864 ft 457 kts 311°
2026-05-06 17:40 49.40672 11.42512 35878 ft 456 kts 311°
2026-05-06 17:41 49.45357 11.35954 35871 ft 456 kts 311°
2026-05-06 17:41 49.50041 11.29381 35867 ft 455 kts 311°
2026-05-06 17:42 49.54714 11.22810 35880 ft 456 kts 312°
2026-05-06 17:42 49.59591 11.16498 35887 ft 459 kts 315°
2026-05-06 17:43 49.64594 11.10386 35873 ft 459 kts 316°
2026-05-06 17:43 49.69591 11.04239 35880 ft 459 kts 315°
2026-05-06 17:44 49.74562 10.98044 35874 ft 459 kts 315°
2026-05-06 17:44 49.79521 10.91823 35877 ft 459 kts 315°
2026-05-06 17:45 49.84481 10.85579 35884 ft 460 kts 315°
2026-05-06 17:45 49.89413 10.79358 35879 ft 460 kts 315°
2026-05-06 17:46 49.94374 10.73085 35881 ft 460 kts 315°
2026-05-06 17:46 49.99329 10.66803 35881 ft 460 kts 315°
2026-05-06 17:47 50.04281 10.60507 35878 ft 460 kts 315°
2026-05-06 17:47 50.09230 10.54194 35899 ft 460 kts 315°
2026-05-06 17:48 50.14178 10.47869 35881 ft 460 kts 315°
2026-05-06 17:48 50.19128 10.41515 35882 ft 460 kts 314°
2026-05-06 17:49 50.23296 10.34146 35488 ft 452 kts 300°
2026-05-06 17:49 50.25080 10.30119 35138 ft 448 kts 298°
2026-05-06 17:49 50.26823 10.26113 34775 ft 444 kts 298°
2026-05-06 17:50 50.28552 10.22137 34419 ft 442 kts 298°
2026-05-06 17:50 50.30273 10.18198 34077 ft 442 kts 298°
2026-05-06 17:50 50.32018 10.14231 33729 ft 442 kts 298°
2026-05-06 17:50 50.33768 10.10271 33323 ft 443 kts 299°
2026-05-06 17:51 50.35524 10.06305 32919 ft 444 kts 299°
2026-05-06 17:51 50.37285 10.02330 32531 ft 445 kts 300°
2026-05-06 17:51 50.39056 9.98333 32128 ft 447 kts 300°
2026-05-06 17:51 50.40828 9.94327 31741 ft 449 kts 300°
2026-05-06 17:52 50.42609 9.90293 31355 ft 450 kts 300°
2026-05-06 17:52 50.44392 9.86249 30976 ft 451 kts 301°
2026-05-06 17:52 50.46179 9.82191 30603 ft 452 kts 301°
2026-05-06 17:52 50.47968 9.78121 30236 ft 453 kts 301°
2026-05-06 17:53 50.49757 9.74046 29895 ft 453 kts 301°
2026-05-06 17:53 50.51537 9.69985 29804 ft 451 kts 301°
2026-05-06 17:53 50.55092 9.61857 29787 ft 451 kts 301°
2026-05-06 17:54 50.58642 9.53707 29781 ft 452 kts 301°
2026-05-06 17:54 50.62189 9.45541 29791 ft 452 kts 301°
2026-05-06 17:55 50.65731 9.37362 29795 ft 452 kts 301°
2026-05-06 17:55 50.69264 9.29178 29801 ft 451 kts 300°
2026-05-06 17:56 50.72787 9.20990 29798 ft 451 kts 300°
2026-05-06 17:56 50.76279 9.12850 29798 ft 450 kts 300°
2026-05-06 17:57 50.79781 9.04660 29790 ft 450 kts 300°
2026-05-06 17:57 50.83277 8.96476 29805 ft 449 kts 301°
2026-05-06 17:58 50.87094 8.88612 29806 ft 451 kts 305°
2026-05-06 17:58 50.91043 8.80923 29790 ft 442 kts 305°
2026-05-06 17:59 50.92934 8.77202 29791 ft 425 kts 304°
2026-05-06 17:59 50.94740 8.73608 29783 ft 409 kts 304°
2026-05-06 17:59 50.96485 8.70106 29475 ft 402 kts 304°
2026-05-06 17:59 50.98199 8.66659 29127 ft 396 kts 304°
2026-05-06 18:00 50.99896 8.63244 28770 ft 391 kts 304°
2026-05-06 18:00 51.01679 8.59980 28358 ft 392 kts 312°
2026-05-06 18:00 51.03795 8.57248 27977 ft 393 kts 322°
2026-05-06 18:00 51.06073 8.54873 27571 ft 391 kts 323°
2026-05-06 18:01 51.08361 8.52552 27190 ft 389 kts 324°
2026-05-06 18:01 51.10631 8.50252 26794 ft 385 kts 324°
2026-05-06 18:01 51.12877 8.47956 26403 ft 382 kts 324°
2026-05-06 18:01 51.15104 8.45659 26010 ft 379 kts 324°
2026-05-06 18:02 51.17304 8.43374 25622 ft 377 kts 324°
2026-05-06 18:02 51.18752 8.41865 25371 ft 375 kts 324°
2026-05-06 18:02 51.20922 8.39597 24995 ft 372 kts 324°
2026-05-06 18:02 51.23083 8.37334 24623 ft 370 kts 324°
2026-05-06 18:03 51.25230 8.35083 24250 ft 368 kts 324°
2026-05-06 18:03 51.27361 8.32846 23869 ft 365 kts 324°
2026-05-06 18:03 51.29456 8.30645 23485 ft 356 kts 324°
2026-05-06 18:03 51.31501 8.28496 23060 ft 347 kts 324°
2026-05-06 18:04 51.33495 8.26398 22672 ft 338 kts 324°
2026-05-06 18:04 51.35434 8.24357 22332 ft 329 kts 324°
2026-05-06 18:04 51.37348 8.22351 21964 ft 329 kts 324°
2026-05-06 18:04 51.39259 8.20353 21604 ft 327 kts 324°
2026-05-06 18:05 51.41146 8.18380 21228 ft 320 kts 324°
2026-05-06 18:05 51.42981 8.16450 20931 ft 311 kts 324°
2026-05-06 18:05 51.44761 8.14564 20604 ft 303 kts 324°
2026-05-06 18:05 51.46504 8.12715 20289 ft 296 kts 324°
2026-05-06 18:06 51.48204 8.10910 19977 ft 290 kts 324°
2026-05-06 18:06 51.49770 8.08955 19643 ft 281 kts 307°
2026-05-06 18:06 51.50617 8.06235 19400 ft 270 kts 281°
2026-05-06 18:06 51.50754 8.03277 19104 ft 266 kts 262°
2026-05-06 18:07 51.50365 8.00386 18828 ft 264 kts 255°
2026-05-06 18:07 51.49850 7.97543 18542 ft 267 kts 254°
2026-05-06 18:07 51.49323 7.94651 18234 ft 273 kts 254°
2026-05-06 18:07 51.48798 7.91709 17902 ft 275 kts 255°
2026-05-06 18:08 51.48286 7.88798 17561 ft 275 kts 255°
2026-05-06 18:08 51.47754 7.85813 17240 ft 275 kts 255°
2026-05-06 18:08 51.47235 7.82907 16912 ft 274 kts 254°
2026-05-06 18:08 51.46710 7.79965 16612 ft 274 kts 254°
2026-05-06 18:09 51.46185 7.77035 16307 ft 274 kts 254°
2026-05-06 18:09 51.45660 7.74101 15998 ft 273 kts 254°
2026-05-06 18:09 51.45135 7.71174 15688 ft 273 kts 254°
2026-05-06 18:09 51.44608 7.68242 15382 ft 274 kts 255°
2026-05-06 18:10 51.44080 7.65310 15066 ft 274 kts 256°
2026-05-06 18:10 51.43550 7.62368 14761 ft 275 kts 256°
2026-05-06 18:10 51.43019 7.59427 14460 ft 275 kts 256°
2026-05-06 18:10 51.42435 7.56495 14180 ft 276 kts 250°
2026-05-06 18:11 51.41661 7.53674 13765 ft 279 kts 247°
2026-05-06 18:11 51.40823 7.50851 13253 ft 281 kts 246°
2026-05-06 18:11 51.39976 7.48023 12733 ft 282 kts 247°
2026-05-06 18:11 51.39134 7.45187 12211 ft 282 kts 247°
2026-05-06 18:12 51.38303 7.42367 11891 ft 275 kts 248°
2026-05-06 18:12 51.37501 7.39630 11623 ft 270 kts 248°
2026-05-06 18:12 51.36709 7.36913 11385 ft 269 kts 248°
2026-05-06 18:12 51.35924 7.34207 11125 ft 268 kts 248°
2026-05-06 18:13 51.35142 7.31513 10919 ft 266 kts 248°
2026-05-06 18:13 51.34366 7.28835 10886 ft 264 kts 248°
2026-05-06 18:13 51.33601 7.26196 10873 ft 260 kts 248°
2026-05-06 18:13 51.32841 7.23575 10868 ft 260 kts 248°
2026-05-06 18:14 51.32078 7.20944 10878 ft 262 kts 248°
2026-05-06 18:14 51.31299 7.18258 10598 ft 271 kts 248°
2026-05-06 18:14 51.30504 7.15520 10198 ft 271 kts 248°
2026-05-06 18:14 51.29711 7.12798 9833 ft 269 kts 249°
2026-05-06 18:15 51.28922 7.10094 9446 ft 268 kts 249°
2026-05-06 18:15 51.28141 7.07415 9052 ft 266 kts 248°
2026-05-06 18:15 51.27361 7.04742 8657 ft 264 kts 248°
2026-05-06 18:15 51.26587 7.02095 8274 ft 262 kts 248°
2026-05-06 18:16 51.25819 6.99469 7871 ft 261 kts 248°
2026-05-06 18:16 51.25048 6.96834 7373 ft 264 kts 248°
2026-05-06 18:16 51.24269 6.94173 6889 ft 266 kts 248°
2026-05-06 18:16 51.23482 6.91488 6429 ft 267 kts 248°
2026-05-06 18:17 51.22697 6.88819 6006 ft 265 kts 247°
2026-05-06 18:17 51.21895 6.86175 5550 ft 265 kts 242°
2026-05-06 18:17 51.20795 6.83817 5260 ft 265 kts 232°
2026-05-06 18:17 51.19633 6.81554 5053 ft 261 kts 233°
2026-05-06 18:18 51.18512 6.79359 4994 ft 248 kts 233°
2026-05-06 18:18 51.17439 6.77257 5001 ft 244 kts 233°
2026-05-06 18:18 51.16368 6.75156 5003 ft 244 kts 233°
2026-05-06 18:18 51.15298 6.73058 4999 ft 243 kts 233°
2026-05-06 18:19 51.14235 6.70980 4998 ft 242 kts 233°
2026-05-06 18:19 51.13176 6.68918 4999 ft 240 kts 233°
2026-05-06 18:19 51.12120 6.66874 4998 ft 238 kts 233°
2026-05-06 18:19 51.11069 6.64844 4993 ft 237 kts 233°
2026-05-06 18:20 51.10037 6.62845 4984 ft 236 kts 233°
2026-05-06 18:20 51.08983 6.60806 4995 ft 235 kts 233°
2026-05-06 18:20 51.08093 6.58677 4974 ft 235 kts 251°
2026-05-06 18:20 51.07819 6.56067 4608 ft 241 kts 280°
2026-05-06 18:21 51.08429 6.53646 4260 ft 236 kts 310°
2026-05-06 18:21 51.09594 6.51901 4038 ft 224 kts 322°
2026-05-06 18:21 51.10754 6.50420 3995 ft 210 kts 323°
2026-05-06 18:21 51.12024 6.49421 3989 ft 199 kts 353°
2026-05-06 18:22 51.13371 6.49776 4009 ft 200 kts 22°
2026-05-06 18:22 51.14614 6.50688 4027 ft 201 kts 23°
2026-05-06 18:22 51.15904 6.51623 3864 ft 207 kts 23°
2026-05-06 18:22 51.17144 6.52734 3599 ft 204 kts 42°
2026-05-06 18:23 51.18025 6.54473 3372 ft 199 kts 50°
2026-05-06 18:23 51.18881 6.56188 3105 ft 196 kts 50°
2026-05-06 18:23 51.19718 6.57895 2850 ft 195 kts 51°
2026-05-06 18:23 51.20547 6.59621 2585 ft 196 kts 51°
2026-05-06 18:24 51.21364 6.61335 2333 ft 192 kts 51°
2026-05-06 18:24 51.22166 6.63024 2069 ft 189 kts 51°
2026-05-06 18:24 51.22956 6.64689 1826 ft 187 kts 51°
2026-05-06 18:24 51.23734 6.66325 1572 ft 182 kts 51°
2026-05-06 18:25 51.24480 6.67894 1343 ft 172 kts 50°
2026-05-06 18:25 51.25184 6.69373 1119 ft 163 kts 50°
2026-05-06 18:25 51.25854 6.70779 910 ft 157 kts 50°
2026-05-06 18:25 51.26506 6.72148 689 ft 153 kts 50°
2026-05-06 18:26 51.27137 6.73474 519 ft 146 kts 51°
2026-05-06 18:26 51.27726 6.74713 378 ft 139 kts 49°
2026-05-06 18:26 51.28306 6.75934 195 ft 137 kts 47°
2026-05-06 18:26 51.28863 6.77085 126 ft 116 kts 53°
2026-05-06 18:27 51.29219 6.77835 133 ft 55 kts 53°
2026-05-06 18:27 51.29370 6.78153 141 ft 25 kts 53°
2026-05-06 18:27 51.29462 6.78348 146 ft 21 kts 58°
2026-05-06 18:27 51.29446 6.78467 148 ft 11 kts 162°
2026-05-06 18:28 51.29372 6.78452 146 ft 11 kts 208°
2026-05-06 18:28 51.29299 6.78375 142 ft 14 kts 217°
2026-05-06 18:28 51.29268 6.78338 141 ft 0 kts 216°